| time (UTC) | temp F | wind direction | speed MPH | gust MPH | rain 1hr in | rain 24hr in | rain mn in | humidity % | barometer mb |
| 20260906203028 | 77 | 44 | 6.0 | 12.0 | 0.00 | 0.01 | 0.00 | 59 | 989.2 |
| 20260906201522 | 77 | 79 | 4.0 | 12.0 | 0.00 | 0.01 | 0.00 | 64 | 989.2 |
| 20260906200023 | 78 | 345 | 4.0 | 9.0 | 0.00 | 0.01 | 0.00 | 66 | 989.3 |
| 20260906194521 | 77 | 58 | 2.0 | 7.0 | 0.00 | 0.01 | 0.00 | 68 | 989.4 |
| 20260906193020 | 77 | 350 | 3.0 | 11.0 | 0.00 | 0.01 | 0.00 | 64 | 989.5 |
| 20260906191518 | 77 | 55 | 2.0 | 10.0 | 0.00 | 0.01 | 0.00 | 65 | 989.4 |
| 20260906190019 | 77 | 76 | 5.0 | 11.0 | 0.00 | 0.01 | 0.00 | 60 | 989.4 |
| 20260906184516 | 77 | 94 | 4.0 | 9.0 | 0.00 | 0.01 | 0.00 | 64 | 989.4 |
| 20260906183023 | 77 | 68 | 3.0 | 10.0 | 0.00 | 0.01 | 0.00 | 64 | 989.5 |
| 20260906181515 | 77 | 39 | 3.0 | 7.0 | 0.00 | 0.01 | 0.00 | 65 | 989.6 |
| 20260906180013 | 77 | 65 | 4.0 | 7.0 | 0.00 | 0.01 | 0.00 | 67 | 989.6 |
| 20260906174512 | 76 | 25 | 3.0 | 11.0 | 0.00 | 0.01 | 0.00 | 65 | 989.7 |
| 20260906173011 | 76 | 58 | 5.0 | 11.0 | 0.00 | 0.01 | 0.00 | 65 | 989.8 |
| 20260906171508 | 76 | 78 | 2.0 | 11.0 | 0.00 | 0.01 | 0.00 | 65 | 989.9 |
| 20260906170006 | 76 | 346 | 2.0 | 8.0 | 0.00 | 0.01 | 0.00 | 66 | 990.1 |
| 20260906164502 | 76 | 47 | 3.0 | 10.0 | 0.00 | 0.01 | 0.00 | 65 | 990.3 |
| 20260906163122 | 75 | 335 | 1.0 | 8.0 | 0.00 | 0.01 | 0.00 | 69 | 990.2 |
| 20260906161556 | 74 | 1 | 2.0 | 8.0 | 0.00 | 0.01 | 0.00 | 74 | 990.1 |
| 20260906160054 | 74 | 110 | 1.0 | 9.0 | 0.00 | 0.01 | 0.00 | 76 | 990.3 |
| 20260906154551 | 74 | 52 | 3.0 | 8.0 | 0.00 | 0.01 | 0.00 | 78 | 990.2 |
| 20260906153053 | 73 | 72 | 4.0 | 8.0 | 0.00 | 0.01 | 0.00 | 77 | 990.1 |
| 20260906151549 | 73 | 22 | 4.0 | 7.0 | 0.00 | 0.01 | 0.00 | 77 | 989.9 |
| 20260906150048 | 72 | 63 | 2.0 | 7.0 | 0.00 | 0.01 | 0.00 | 78 | 989.8 |
| 20260906144545 | 72 | 85 | 2.0 | 7.0 | 0.00 | 0.01 | 0.00 | 77 | 990.1 |
| 20260906143047 | 71 | 39 | 3.0 | 7.0 | 0.00 | 0.01 | 0.00 | 78 | 990.3 |
| 20260906141540 | 70 | 58 | 3.0 | 8.0 | 0.00 | 0.01 | 0.00 | 80 | 990.3 |
| 20260906140047 | 69 | 59 | 4.0 | 9.0 | 0.00 | 0.01 | 0.00 | 80 | 990.2 |
| 20260906134539 | 69 | 33 | 3.0 | 7.0 | 0.00 | 0.01 | 0.00 | 81 | 990.1 |
| 20260906133036 | 68 | 46 | 2.0 | 6.0 | 0.00 | 0.01 | 0.00 | 85 | 990.1 |
| 20260906131535 | 67 | 39 | 3.0 | 7.0 | 0.00 | 0.01 | 0.00 | 86 | 990.2 |
| 20260906130040 | 66 | 91 | 3.0 | 8.0 | 0.00 | 0.01 | 0.00 | 89 | 990.1 |
| 20260906124532 | 66 | 30 | 1.0 | 8.0 | 0.00 | 0.01 | 0.00 | 91 | 990.2 |
| 20260906123029 | 65 | 15 | 3.0 | 7.0 | 0.00 | 0.01 | 0.00 | 91 | 989.9 |
| 20260906121528 | 65 | 128 | 3.0 | 7.0 | 0.00 | 0.01 | 0.00 | 94 | 989.7 |
| 20260906120025 | 65 | 49 | 1.0 | 4.0 | 0.00 | 0.01 | 0.00 | 95 | 989.6 |
| 20260906114523 | 0 | 0.0 | 0.0 | 0.00 | 0.01 | 0.00 | 989.2 | ||
| 20260906113018 | 0 | 0.0 | 0.0 | 0.00 | 0.01 | 0.00 | 988.9 | ||
| 20260906111513 | 0 | 0.0 | 0.0 | 0.00 | 0.01 | 0.00 | 988.7 | ||
| 20260906110009 | 0 | 0.0 | 0.0 | 0.00 | 0.01 | 0.00 | 988.5 | ||
| 20260906104506 | 0 | 0.0 | 0.0 | 0.00 | 0.01 | 0.00 | 988.4 | ||
| 20260906103001 | 64 | 57 | 1.0 | 5.0 | 0.00 | 0.01 | 0.00 | 96 | 988.3 |
| 20260906101600 | 64 | 42 | 1.0 | 3.0 | 0.00 | 0.01 | 0.00 | 97 | 988.2 |
| 20260906100100 | 64 | 45 | 1.0 | 3.0 | 0.00 | 0.01 | 0.00 | 97 | 987.9 |
| 20260906094602 | 64 | 60 | 1.0 | 4.0 | 0.00 | 0.01 | 0.00 | 97 | 987.8 |
| 20260906093058 | 65 | 55 | 0.0 | 3.0 | 0.00 | 0.01 | 0.00 | 96 | 987.8 |
| 20260906091552 | 65 | 63 | 1.0 | 5.0 | 0.00 | 0.01 | 0.00 | 96 | 987.7 |
| 20260906090052 | 65 | 75 | 0.0 | 3.0 | 0.00 | 0.01 | 0.00 | 96 | 987.5 |
| 20260906084554 | 65 | 64 | 0.0 | 3.0 | 0.00 | 0.01 | 0.00 | 96 | 987.6 |
| 20260906083048 | 65 | 28 | 0.0 | 4.0 | 0.00 | 0.01 | 0.00 | 96 | 987.7 |
| 20260906081548 | 65 | 55 | 1.0 | 3.0 | 0.00 | 0.01 | 0.00 | 97 | 987.4 |
| 20260906080053 | 66 | 53 | 0.0 | 4.0 | 0.00 | 0.01 | 0.00 | 96 | 987.6 |
| 20260906074544 | 66 | 38 | 1.0 | 4.0 | 0.00 | 0.01 | 0.00 | 97 | 987.5 |
| 20260906073043 | 66 | 37 | 1.0 | 5.0 | 0.00 | 0.01 | 0.00 | 97 | 987.4 |
| 20260906071542 | 66 | 58 | 0.0 | 4.0 | 0.00 | 0.01 | 0.00 | 97 | 987.4 |
| 20260906070041 | 66 | 53 | 1.0 | 6.0 | 0.00 | 0.01 | 0.00 | 97 | 987.2 |
| 20260906064540 | 66 | 46 | 1.0 | 4.0 | 0.00 | 0.01 | 0.00 | 97 | 987.6 |
| 20260906063038 | 67 | 46 | 1.0 | 5.0 | 0.00 | 0.01 | 0.00 | 97 | 987.5 |
| 20260906061540 | 67 | 56 | 2.0 | 5.0 | 0.00 | 0.01 | 0.00 | 97 | 987.6 |
| 20260906060037 | 67 | 38 | 0.0 | 4.0 | 0.00 | 0.01 | 0.00 | 96 | 987.5 |
| 20260906054535 | 67 | 63 | 1.0 | 5.0 | 0.00 | 0.01 | 0.00 | 97 | 987.4 |
| 20260906053032 | 68 | 66 | 1.0 | 3.0 | 0.00 | 0.01 | 0.00 | 97 | 987.1 |
| 20260906051530 | 68 | 64 | 0.0 | 3.0 | 0.00 | 0.01 | 0.00 | 96 | 987.2 |
| 20260906050028 | 69 | 80 | 1.0 | 4.0 | 0.00 | 0.01 | 0.00 | 96 | 987.2 |
| 20260906044527 | 69 | 42 | 1.0 | 5.0 | 0.00 | 0.01 | 0.00 | 96 | 987.2 |
| 20260906043023 | 70 | 62 | 2.0 | 6.0 | 0.00 | 0.01 | 0.00 | 96 | 986.8 |
| 20260906041528 | 70 | 61 | 2.0 | 9.0 | 0.00 | 0.01 | 0.00 | 97 | 986.8 |
| 20260906040017 | 71 | 56 | 2.0 | 5.0 | 0.00 | 0.01 | 0.00 | 96 | 986.9 |
| 20260906034525 | 71 | 96 | 2.0 | 8.0 | 0.00 | 0.01 | 0.01 | 96 | 986.9 |
| 20260906033018 | 72 | 60 | 1.0 | 7.0 | 0.00 | 0.01 | 0.01 | 97 | 987.1 |
| 20260906031514 | 72 | 39 | 2.0 | 7.0 | 0.00 | 0.01 | 0.01 | 96 | 986.9 |
| 20260906030013 | 73 | 56 | 3.0 | 8.0 | 0.00 | 0.01 | 0.01 | 96 | 986.7 |
| 20260906024510 | 73 | 63 | 3.0 | 8.0 | 0.00 | 0.01 | 0.01 | 97 | 986.3 |
| 20260906023009 | 73 | 52 | 3.0 | 10.0 | 0.00 | 0.01 | 0.01 | 97 | 986.2 |
| 20260906021513 | 73 | 45 | 4.0 | 9.0 | 0.00 | 0.01 | 0.01 | 97 | 986.1 |
| 20260906020009 | 74 | 108 | 2.0 | 6.0 | 0.01 | 0.01 | 0.01 | 97 | 986.0 |
| 20260906014518 | 74 | 51 | 4.0 | 7.0 | 0.01 | 0.01 | 0.01 | 97 | 985.8 |
| 20260906013006 | 75 | 53 | 2.0 | 10.0 | 0.01 | 0.01 | 0.01 | 96 | 985.4 |
| 20260906011506 | 76 | 45 | 4.0 | 11.0 | 0.01 | 0.01 | 0.01 | 95 | 985.2 |
| 20260906010008 | 76 | 77 | 3.0 | 10.0 | 0.00 | 0.00 | 0.00 | 93 | 985.0 |
| 20260906004505 | 77 | 62 | 3.0 | 10.0 | 0.00 | 0.00 | 0.00 | 92 | 984.9 |
| 20260906003004 | 78 | 30 | 2.0 | 10.0 | 0.00 | 0.00 | 0.00 | 89 | 984.8 |
| 20260906001502 | 80 | 56 | 1.0 | 4.0 | 0.00 | 0.00 | 0.00 | 85 | 984.5 |
| 20260906000003 | 82 | 337 | 2.0 | 5.0 | 0.00 | 0.00 | 0.00 | 84 | 984.5 |
| 20260905234503 | 83 | 292 | 1.0 | 4.0 | 0.00 | 0.00 | 0.00 | 82 | 984.6 |
| 20260905233000 | 84 | 326 | 2.0 | 6.0 | 0.00 | 0.00 | 0.00 | 82 | 984.4 |
| 20260905231600 | 84 | 293 | 1.0 | 3.0 | 0.00 | 0.00 | 0.00 | 82 | 984.2 |
| 20260905230059 | 84 | 293 | 0.0 | 3.0 | 0.00 | 0.00 | 0.00 | 81 | 984.2 |
| 20260905224613 | 86 | 302 | 2.0 | 6.0 | 0.00 | 0.00 | 0.00 | 78 | 984.2 |
| 20260905223106 | 87 | 296 | 0.0 | 1.0 | 0.00 | 0.00 | 0.00 | 78 | 984.0 |
| 20260905221558 | 87 | 296 | 1.0 | 4.0 | 0.00 | 0.00 | 0.00 | 76 | 984.0 |
| 20260905220057 | 89 | 333 | 1.0 | 4.0 | 0.00 | 0.00 | 0.00 | 76 | 983.8 |
| 20260905214559 | 88 | 333 | 0.0 | 3.0 | 0.00 | 0.00 | 0.00 | 80 | 983.8 |
| 20260905213056 | 87 | 48 | 0.0 | 5.0 | 0.00 | 0.00 | 0.00 | 81 | 983.8 |
| 20260905211556 | 86 | 13 | 1.0 | 4.0 | 0.00 | 0.00 | 0.00 | 81 | 983.5 |
| 20260905210056 | 87 | 303 | 1.0 | 4.0 | 0.00 | 0.00 | 0.00 | 80 | 983.6 |
| 20260905204554 | 85 | 270 | 1.0 | 4.0 | 0.00 | 0.00 | 0.00 | 86 | 983.6 |